Location: Unnamed
(45.0299°N, 38.9898°E)
Time: 05:44:34
(UTC+03:00)

Tiangong - Visible Passes

Search period start: 19 August 2022 00:00
Search period end: 29 August 2022 00:00
Orbit: 381 x 385 km, 41.5° (Epoch: 18 August)

Date Brightness Start Highest point End Pass type
(mag) Time Alt. Az. Time Alt. Az. Time Alt. Az.
19 Aug -1.4 20:21:22 10° WSW 20:24:19 37° S 20:26:17 17° ESE visible
19 Aug 0.5 21:57:51 10° WSW 21:58:27 14° WSW 21:58:27 14° WSW visible
20 Aug -1.7 20:57:41 10° WSW 21:00:41 43° S 21:01:00 41° SSE visible
21 Aug -1.5 19:57:32 10° WSW 20:00:32 42° S 20:03:29 10° ESE visible
21 Aug -0.2 21:34:10 10° WSW 21:35:39 22° WSW 21:35:39 22° WSW visible
22 Aug -1.5 20:33:55 10° WSW 20:36:53 39° S 20:38:05 27° SE visible
23 Aug -0.5 21:10:30 10° WSW 21:12:39 24° SW 21:12:39 24° SW visible
24 Aug -1.1 20:10:07 10° WSW 20:13:00 32° SSW 20:15:03 16° SE visible
25 Aug -0.2 20:46:55 10° WSW 20:49:09 18° SSW 20:49:36 17° SSW visible
26 Aug -0.5 19:46:20 10° WSW 19:49:00 25° SSW 19:51:40 10° SE visible
27 Aug 0.4 20:23:44 10° SW 20:25:02 12° SSW 20:26:20 10° S visible
